GFSGBSN_sfc_dewp_099.txt.gz
Dewpoint
62 61 60 59 59 58 58 58 57 56 55 55 54 53 51 50 50 50 51 51 49 47 47 47 47 49 46 37 32 29 53 54 48 37 31 30 23 17 15 14 17 19 21 23 25 25 24
59 61 60 59 59 59 58 58 57 55 55 54 53 53 52 50 50 50 50 49 48 47 46 46 47 47 43 21 17 30 42 46 37 32 32 30 30 31 29 27 21 19 18 17 17 16 18
57 58 60 60 59 59 58 57 57 56 55 54 53 53 52 50 50 50 48 47 47 47 46 46 48 46 42 33 30 30 39 36 34 34 30 34 34 28 22 20 25 25 23 24 23 21 19
57 57 58 59 59 58 57 57 57 56 55 54 53 52 52 51 51 48 46 47 47 47 46 47 48 47 39 39 40 39 37 34 31 29 30 22 20 19 20 23 23 23 23 21 21 20 18
55 56 57 56 59 58 57 57 57 56 55 54 53 52 52 51 49 47 47 47 47 46 46 46 47 43 37 43 42 41 34 28 25 25 22 20 21 15 18 19 20 22 19 20 20 20 19
55 55 57 56 57 58 58 57 56 56 54 53 53 52 51 49 47 48 48 46 44 45 45 47 46 39 38 33 30 27 36 31 26 30 25 21 17 12 15 17 15 18 18 20 18 17 14
55 55 55 57 56 58 59 57 56 55 54 53 52 51 50 47 46 47 43 39 40 40 41 38 38 36 34 37 26 23 22 27 24 25 24 21 14 11 11 14 17 18 16 15 14 14 14
57 57 56 57 57 58 59 58 56 54 53 53 52 51 48 46 46 44 42 35 34 30 26 36 41 38 36 38 37 26 26 19 18 15 24 25 16 16 16 15 14 14 13 12 13 14 14
57 56 56 57 57 58 58 57 55 53 53 52 52 49 47 46 44 41 38 37 35 31 21 19 31 38 38 39 36 27 26 22 17 16 16 22 24 25 20 19 17 17 15 15 15 16 16
56 56 56 56 57 57 57 57 54 53 52 52 49 48 47 44 34 38 35 35 37 33 11 13 25 23 32 29 26 28 24 20 17 14 17 18 19 17 16 19 21 19 21 20 19 17 15
53 56 56 56 56 56 56 55 53 52 51 49 48 46 45 40 39 36 33 33 41 39 1 19 21 25 28 26 22 26 29 27 22 21 21 19 21 19 18 18 18 17 21 20 20 19 17
54 55 56 56 56 55 54 53 52 51 49 48 46 45 44 40 40 38 38 38 39 29 12 21 25 24 24 24 19 25 25 26 26 23 23 20 22 21 19 20 19 19 17 20 20 19 16
51 55 56 56 55 54 52 51 50 50 48 47 45 43 40 38 37 39 38 37 31 24 18 19 23 24 12 9 8 13 12 21 19 10 15 24 19 20 25 22 24 22 19 15 16 17 14
47 49 51 52 52 51 50 50 49 46 44 43 43 41 39 37 37 40 39 33 25 18 11 10 6 7 7 9 12 10 6 19 25 28 26 23 16 23 22 26 23 24 19 16 15 18 17
48 47 47 47 47 47 46 45 45 44 43 41 40 38 36 39 37 39 36 29 24 13 10 8 8 4 11 11 11 12 17 26 25 24 20 24 23 23 23 22 18 22 23 26 24 22 21
48 48 48 47 47 46 46 45 43 42 41 40 38 38 39 41 41 39 34 28 15 14 13 13 7 13 11 10 10 10 17 24 24 24 25 26 17 23 23 17 19 24 27 24 27 20 16
44 44 45 45 45 45 45 44 43 42 40 41 39 36 39 40 41 37 28 25 15 14 15 16 13 13 13 13 13 13 16 24 25 26 27 24 23 20 18 17 16 16 16 25 30 28 24
45 44 44 44 44 44 43 43 41 40 40 39 36 31 37 40 35 34 27 22 22 14 18 18 19 19 17 17 14 14 17 23 29 26 22 27 23 21 17 19 20 19 27 30 17 19 25
44 43 43 43 43 44 41 41 41 41 41 36 34 31 36 38 29 26 22 17 20 16 17 17 18 19 18 16 13 19 23 30 27 25 23 25 20 15 8 12 19 20 21 26 29 28 23
43 43 40 40 41 40 40 40 40 40 41 37 34 26 29 33 32 26 23 21 18 19 17 15 17 18 16 19 19 19 19 26 27 31 33 28 23 17 11 13 23 21 20 20 23 18 21
43 41 41 41 40 40 39 39 39 40 40 38 35 29 29 27 25 23 23 24 19 17 18 18 18 18 17 16 15 16 18 19 20 29 30 25 21 23 23 23 23 20 18 19 19 20 19
42 41 42 41 40 39 39 40 39 40 41 36 32 26 26 23 24 21 22 19 17 17 18 15 16 18 16 14 15 14 19 18 18 26 28 28 17 24 22 19 17 17 17 18 20 23 23
41 40 41 41 40 40 40 39 39 40 40 33 33 32 27 23 23 23 23 21 19 21 20 18 19 17 17 18 20 21 22 23 22 19 22 25 22 18 12 15 16 13 20 20 19 32 30
41 41 41 41 39 39 39 39 40 42 38 35 35 32 27 22 21 20 21 21 22 21 19 25 25 21 24 25 24 23 23 22 22 21 21 20 19 18 14 17 8 23 32 29 28 32 34
41 41 40 40 39 40 40 40 43 45 41 37 37 33 29 23 21 22 24 23 23 25 24 25 26 28 28 25 22 19 19 20 21 21 20 21 19 12 11 15 18 23 31 30 29 26 30
41 41 40 41 40 40 41 41 43 45 42 38 37 37 32 27 25 26 24 22 21 21 20 26 28 30 27 22 20 16 14 17 16 24 22 21 21 15 18 16 16 25 30 35 35 22 28
41 40 40 41 40 40 41 41 43 44 43 38 37 37 32 28 30 27 23 22 24 22 20 24 25 26 27 16 15 16 18 21 21 23 19 19 21 17 17 17 23 28 31 34 26 24 27
42 41 43 41 41 41 41 41 42 43 43 38 37 38 33 28 30 32 29 25 24 24 19 23 22 22 22 17 21 19 21 24 25 28 28 25 23 21 22 20 18 30 30 27 29 29 27
42 42 42 42 42 41 41 41 42 43 43 39 35 38 36 31 29 32 31 30 27 26 26 27 22 27 28 22 25 26 24 26 25 22 30 22 27 25 25 23 30 30 29 33 31 28 28

GFSGBSN_sfc_dewp_102.txt.gz
Dewpoint
57 57 58 61 60 60 60 59 58 57 56 56 56 55 55 53 52 52 52 51 50 48 47 46 46 48 44 28 24 26 53 56 51 36 29 26 20 15 12 14 17 21 23 22 23 24 24
55 56 57 57 59 60 60 59 58 57 56 56 55 55 54 54 52 52 51 51 48 47 47 46 46 47 42 11 15 35 35 44 39 34 30 30 26 23 27 28 22 23 19 19 20 18 18
53 54 55 56 56 57 59 59 58 57 57 56 55 55 54 53 52 51 50 50 47 46 47 46 46 45 41 17 28 29 35 40 37 30 31 33 33 25 23 16 24 25 24 23 23 23 22
54 54 54 54 55 56 56 58 58 58 57 56 56 54 53 53 52 52 50 47 47 46 46 46 48 46 37 38 39 39 37 34 31 30 32 30 27 21 18 18 21 22 23 20 21 21 21
53 53 54 54 54 55 55 56 58 58 57 56 56 54 53 52 52 50 46 46 46 46 45 46 46 43 35 41 39 42 37 32 23 29 27 23 21 18 17 16 14 20 18 19 20 21 20
53 54 54 55 55 54 55 55 56 57 57 56 55 54 53 52 50 47 47 46 44 45 45 45 45 34 35 24 35 32 39 30 27 27 23 21 18 14 15 15 12 16 19 19 18 18 16
52 53 53 54 55 56 55 56 56 57 57 56 55 54 52 51 49 46 43 39 41 40 41 34 35 28 31 37 38 21 30 30 25 25 23 19 16 15 16 15 16 19 18 16 15 15 15
51 52 54 55 57 56 56 56 55 57 56 55 54 53 52 50 48 46 42 33 35 30 27 37 38 38 35 39 34 35 23 23 19 19 24 25 16 17 15 14 13 13 12 12 14 14 14
50 50 52 53 56 55 56 56 56 56 56 55 54 52 51 49 47 44 37 32 37 32 22 19 33 36 36 39 34 36 24 20 18 16 20 21 23 26 19 19 16 16 14 15 16 18 17
51 50 51 52 55 55 56 56 56 56 55 54 52 51 50 47 40 37 33 30 31 30 6 3 21 32 36 39 35 35 26 22 18 16 17 17 18 20 20 19 19 18 20 19 19 19 16
50 51 52 52 55 55 55 56 56 56 54 53 52 50 47 43 40 38 35 39 40 37 13 12 25 26 35 27 21 26 27 25 18 17 18 16 20 18 18 17 19 18 21 20 19 19 18
48 51 54 54 55 55 55 55 55 54 53 52 50 48 45 42 39 39 38 41 41 29 7 20 22 23 27 27 21 25 25 26 25 22 22 19 22 21 20 21 20 21 20 19 21 19 16
47 50 52 55 55 55 55 55 54 53 51 50 48 46 42 43 36 40 39 37 24 14 18 22 23 24 24 21 21 21 23 25 20 15 13 23 20 22 25 23 24 21 18 16 14 17 14
46 47 49 53 55 55 54 53 51 50 50 48 46 43 41 39 42 41 38 33 16 15 14 10 12 16 10 8 12 9 20 23 24 26 25 16 12 22 22 21 15 18 20 17 13 16 16
46 46 46 47 49 51 51 50 49 48 47 45 42 40 39 37 37 39 34 24 14 18 12 12 11 7 12 12 11 13 24 25 24 24 18 23 22 23 20 20 15 17 23 26 24 23 20
47 47 47 46 45 45 45 46 46 45 43 40 37 37 38 42 39 40 33 23 24 16 18 18 12 16 10 12 11 11 20 24 23 25 25 25 13 23 22 16 18 16 18 18 23 17 16
46 47 47 47 47 46 46 46 45 44 42 41 39 33 38 41 41 37 26 28 18 17 18 19 15 15 15 14 14 12 19 23 24 26 25 21 18 20 14 16 12 15 14 19 27 25 18
45 45 45 46 45 45 45 45 44 42 43 40 37 30 39 41 33 34 30 28 24 17 21 21 22 19 18 18 14 15 20 25 28 25 21 26 23 18 14 17 20 19 26 27 14 14 22
44 44 44 45 45 45 45 44 43 41 41 37 33 34 38 38 28 28 29 20 22 18 17 18 17 20 19 16 14 21 26 29 26 24 25 24 19 13 7 15 21 20 20 25 27 26 19
44 43 43 43 44 43 41 41 41 42 41 37 30 27 31 34 34 29 23 21 17 19 19 19 19 20 18 19 20 19 21 22 24 29 32 26 21 15 7 13 21 20 20 21 21 11 15
43 41 41 42 42 41 41 41 41 41 41 37 33 26 28 27 28 24 23 23 19 17 18 18 17 18 18 16 15 16 17 19 20 29 29 25 20 22 21 22 23 21 21 21 18 17 17
42 42 39 40 41 39 39 40 40 41 40 36 32 28 27 26 26 22 22 20 18 17 18 15 18 18 15 14 14 14 17 17 17 29 26 27 15 23 19 22 23 18 14 16 18 19 19
42 41 41 41 40 39 40 39 40 41 40 33 32 32 27 23 21 22 23 20 19 21 23 21 19 18 17 18 19 19 19 21 19 19 22 24 21 18 12 14 13 10 16 19 19 27 21
40 41 41 40 40 39 39 39 41 42 41 34 35 30 27 23 19 20 22 21 21 20 22 25 24 21 24 26 24 23 22 22 22 21 21 23 18 17 14 16 5 14 30 30 29 29 31
40 41 40 39 38 39 39 41 44 42 41 36 37 32 28 23 22 23 24 23 23 25 25 25 25 28 29 25 21 17 18 19 21 21 21 21 20 12 10 10 13 20 27 28 27 24 28
41 41 40 40 40 40 41 43 45 43 41 37 36 36 31 27 24 25 23 22 20 20 20 25 27 29 26 21 19 15 14 17 18 24 22 21 21 13 12 10 12 22 27 32 34 22 28
41 41 41 40 40 40 41 43 44 43 41 37 37 37 32 28 30 26 21 21 23 21 20 24 26 26 26 15 12 12 17 22 21 23 19 21 22 16 14 16 19 26 28 33 23 21 27
42 42 41 40 40 40 41 43 43 44 41 37 36 37 33 29 29 31 27 24 24 22 19 23 20 21 22 16 20 18 21 24 24 27 24 22 19 19 21 17 16 28 29 25 27 28 26
43 42 41 42 41 40 41 43 44 43 41 38 34 37 35 32 28 32 31 30 26 25 26 26 20 25 23 22 25 27 22 25 25 19 29 21 26 24 24 22 28 30 28 31 31 27 26

GFSGBSN_sfc_dewp_105.txt.gz
Dewpoint
53 54 54 55 57 57 59 61 59 59 58 58 57 57 57 56 55 54 52 52 50 49 47 46 46 48 44 19 11 27 53 56 50 46 31 26 23 18 12 12 17 22 22 24 24 24 24
54 54 54 54 55 56 57 57 59 59 58 57 57 57 56 56 55 54 53 52 50 48 46 46 46 48 41 9 15 34 34 48 44 36 30 25 20 18 19 25 20 23 19 19 21 21 21
52 53 53 54 54 54 55 55 56 57 58 58 57 57 56 55 55 53 52 52 48 46 46 46 46 45 41 19 28 32 36 42 37 33 30 30 30 28 25 16 22 22 21 23 24 24 23
50 50 52 53 53 53 54 54 55 56 57 58 57 57 55 55 54 53 52 51 47 46 46 46 46 45 35 36 40 40 37 33 32 33 30 30 30 27 18 19 19 20 22 17 22 21 21
49 51 52 53 54 54 53 54 54 55 56 57 57 57 55 54 53 52 51 48 46 46 45 45 45 42 32 39 31 35 35 26 28 30 29 25 24 21 18 16 14 19 12 19 19 22 21
50 50 51 50 51 51 52 52 53 54 54 55 56 56 55 54 53 51 48 44 43 45 45 44 44 36 35 23 32 37 40 32 24 24 24 24 20 16 17 15 11 13 17 19 19 18 18
50 50 50 51 52 52 53 54 56 55 55 54 56 56 55 53 52 49 44 41 42 40 43 34 35 28 24 35 38 26 37 32 28 27 22 20 18 17 18 17 15 16 16 13 14 15 15
52 51 51 52 52 52 52 53 53 55 55 55 56 56 54 53 50 47 39 30 36 34 29 36 36 36 34 37 32 32 31 28 25 23 25 20 18 20 21 18 15 13 13 14 16 17 17
52 52 51 51 51 51 51 52 52 55 55 55 55 55 53 51 48 43 38 32 38 40 33 31 31 32 30 33 25 30 23 23 22 22 23 23 23 23 17 16 16 18 18 18 18 19 19
50 50 50 49 51 51 51 53 54 55 55 55 55 54 51 49 43 41 37 38 36 36 21 21 19 27 33 34 29 24 27 20 18 20 19 20 22 23 22 21 21 19 19 18 17 18 13
50 50 49 50 52 52 53 53 55 55 55 55 54 51 49 47 39 36 37 35 32 37 19 18 22 29 36 26 23 28 28 23 18 18 18 15 18 18 17 17 19 17 21 21 20 19 18
49 48 48 49 51 52 53 54 55 55 55 55 52 50 47 42 42 43 45 46 42 27 18 17 23 24 32 32 23 27 25 26 23 19 21 17 21 20 19 21 20 21 20 20 21 20 16
49 47 48 49 51 52 54 55 55 55 55 53 50 48 44 43 39 43 42 39 25 20 21 20 22 25 24 22 23 24 24 24 21 20 19 20 18 22 25 23 22 22 20 13 13 16 11
48 46 45 48 49 53 54 54 54 54 53 51 48 45 42 45 45 45 41 33 21 20 17 16 17 24 23 9 10 11 24 23 25 21 20 10 15 21 21 15 13 17 21 15 10 12 15
46 48 45 45 48 52 54 54 54 52 50 48 44 42 41 43 45 42 36 25 22 19 14 11 10 11 9 10 10 22 25 24 23 25 19 21 19 21 18 17 15 18 22 23 20 23 17
47 48 46 45 45 47 49 50 50 48 47 45 39 38 39 44 43 41 33 27 21 17 17 17 12 15 9 11 10 17 23 24 23 25 26 24 16 22 21 17 15 17 13 15 27 12 5
46 47 47 46 46 45 44 44 44 44 43 42 38 34 38 45 44 36 27 26 21 18 17 18 14 16 14 13 13 15 20 23 25 26 24 21 16 17 16 12 10 10 10 18 23 25 12
46 46 46 47 47 46 46 45 45 45 45 42 36 29 41 44 33 34 27 26 27 21 23 21 21 19 20 24 14 14 20 24 27 26 20 25 22 13 11 19 21 18 21 23 15 11 21
46 45 45 46 46 46 46 45 45 44 43 41 33 33 42 41 28 29 27 26 23 19 18 19 20 19 19 18 15 21 25 27 26 26 26 25 19 9 13 17 19 19 19 25 26 23 18
46 45 45 45 45 45 45 45 44 43 42 40 34 29 35 37 36 28 28 26 17 20 18 20 19 19 20 18 20 19 23 19 23 30 31 27 19 10 2 10 18 19 19 19 21 18 13
44 43 43 43 45 45 45 44 42 43 41 37 32 29 30 27 30 28 26 23 18 15 17 18 16 18 18 16 15 16 17 17 20 31 30 27 18 20 17 17 21 19 18 19 18 18 16
43 42 43 43 43 42 42 43 41 42 41 36 32 29 29 27 30 27 24 19 17 16 18 14 17 16 16 14 14 14 16 16 15 30 28 28 21 23 17 18 17 14 13 16 15 16 16
42 41 42 42 42 39 41 41 41 41 40 34 33 32 29 26 24 24 24 20 18 23 24 20 19 18 17 19 20 19 20 21 19 23 27 25 23 17 12 13 10 6 11 15 18 24 21
43 41 41 41 40 39 39 40 41 41 41 36 35 30 29 23 20 20 21 21 21 20 23 25 24 23 24 27 25 23 23 22 22 21 25 22 21 18 12 14 1 14 29 29 28 27 28
43 43 41 39 38 39 39 41 44 42 44 37 37 32 29 25 24 23 24 25 25 26 24 24 25 28 30 25 20 13 16 19 21 21 21 21 19 18 12 11 11 18 26 28 26 25 29
42 42 40 39 40 40 42 44 44 43 43 38 37 37 32 28 25 24 22 22 20 21 22 25 27 30 28 25 21 14 14 16 19 23 23 21 21 18 16 10 9 21 26 28 32 23 28
42 40 39 40 40 41 43 44 44 43 43 38 37 37 34 30 30 26 22 22 22 21 22 25 26 26 26 23 21 19 17 21 19 23 20 21 22 17 16 15 17 25 28 33 23 21 26
41 41 40 39 41 41 43 43 44 42 41 37 37 37 35 32 29 30 27 24 23 22 23 25 23 24 24 22 21 21 21 23 23 26 23 19 18 18 19 16 14 27 27 23 26 27 26
40 41 40 41 41 42 43 44 43 42 40 37 35 37 36 33 29 33 33 32 28 25 26 26 23 26 27 25 25 26 23 26 24 19 28 22 26 23 24 22 28 29 28 30 30 27 27

GFSGBSN_sfc_dewp_111.txt.gz
Dewpoint
52 53 53 53 53 53 53 54 55 56 57 57 59 59 59 59 59 57 56 54 53 52 50 47 46 47 42 38 35 45 56 51 38 34 27 26 24 23 21 20 17 16 16 18 14 12 14
52 53 52 51 51 52 52 53 54 55 55 55 56 57 58 59 58 58 56 54 53 52 48 46 46 46 41 39 34 25 30 38 32 32 28 25 24 23 21 21 19 18 16 16 17 15 18
51 51 51 52 52 53 53 54 54 55 55 55 55 56 57 58 58 57 56 54 53 50 46 45 46 37 38 41 38 30 29 26 30 29 27 26 23 21 21 21 21 21 20 22 21 19 18
49 50 50 51 52 53 51 51 52 52 53 54 54 55 55 56 57 57 56 54 52 48 45 45 46 39 39 41 36 34 30 29 28 32 28 27 25 23 23 24 23 19 20 19 21 20 19
48 48 49 50 51 52 52 52 53 53 53 53 54 54 54 54 56 56 54 52 50 47 45 44 41 41 40 40 34 33 33 29 27 28 29 25 28 26 25 25 23 22 18 20 20 19 19
47 47 48 50 51 52 53 53 52 52 53 53 52 53 54 54 55 54 52 50 46 44 43 40 37 39 40 39 37 27 30 25 21 22 27 27 23 22 22 20 17 19 18 18 17 17 18
47 46 48 50 52 52 50 50 51 51 52 51 52 52 54 54 55 52 48 46 44 43 41 41 39 39 37 33 29 30 32 25 19 18 23 26 21 20 21 23 21 20 18 17 16 16 17
47 47 48 50 50 50 49 49 50 50 50 51 51 52 52 54 54 51 50 45 44 41 39 41 41 41 39 40 36 36 34 31 28 21 21 22 20 21 21 20 19 18 17 17 15 14 15
49 49 48 48 48 48 48 49 50 50 50 50 51 52 52 54 53 50 49 47 41 42 40 38 37 37 36 38 36 35 35 32 29 27 26 22 17 17 19 19 15 15 16 16 14 15 16
48 49 50 48 48 49 49 50 50 50 49 50 51 52 52 53 49 47 46 42 37 44 35 33 32 34 34 35 34 32 33 32 30 26 26 26 25 21 21 21 18 17 17 17 16 15 12
48 48 49 50 50 49 49 50 50 50 50 51 51 51 52 52 47 45 44 39 39 44 26 22 26 29 28 31 27 23 31 33 31 27 27 27 27 25 23 23 23 19 19 16 15 15 14
48 48 49 49 50 49 49 49 49 49 50 51 51 53 52 51 47 46 41 40 46 35 26 23 22 22 25 28 28 22 23 29 31 28 26 24 25 25 18 17 17 18 16 16 15 13 12
47 48 48 49 50 50 48 49 49 49 50 51 52 54 51 47 43 46 41 44 33 30 25 23 23 23 25 24 24 21 22 24 23 22 23 22 22 24 20 21 20 17 18 15 12 13 12
47 48 48 49 49 49 48 49 49 50 51 52 54 52 51 49 43 43 43 39 30 23 23 21 23 21 21 21 19 19 21 19 22 21 20 25 26 21 21 19 19 18 16 16 18 16 15
46 47 47 48 49 48 46 47 49 50 52 53 52 49 47 47 43 42 42 33 28 24 22 22 22 20 21 20 16 18 20 20 18 21 21 24 21 25 20 18 17 16 19 18 20 22 17
45 46 46 47 48 47 45 46 49 50 53 50 45 43 42 47 45 43 39 33 29 29 29 25 23 23 22 23 18 17 19 21 17 19 23 26 27 23 20 18 17 15 18 22 20 13 9
44 45 46 47 48 47 44 46 50 52 51 48 44 36 40 48 47 39 33 35 36 31 23 22 22 20 20 20 19 16 16 23 23 25 28 26 24 22 21 18 15 16 15 15 16 18 16
44 45 46 46 48 47 43 45 51 50 48 43 40 33 41 46 34 35 35 38 35 28 20 20 21 20 20 21 18 17 15 26 26 30 27 27 26 23 20 17 18 16 16 16 20 14 12
43 44 46 46 47 48 45 45 47 45 44 43 35 33 39 42 32 33 37 34 32 23 22 23 22 21 25 26 19 19 22 27 26 27 25 28 23 18 14 14 17 14 15 15 17 17 15
42 43 44 45 47 47 47 46 46 46 45 43 36 30 33 35 37 36 35 33 27 29 27 25 24 22 23 27 26 27 25 24 26 24 29 28 20 15 8 7 15 16 11 13 18 23 15
41 43 43 44 46 47 48 47 46 46 44 44 39 35 34 31 34 35 35 32 26 22 23 22 24 24 24 25 26 26 29 25 25 30 24 23 19 15 12 9 7 10 11 13 12 16 18
41 43 43 42 46 47 48 48 47 46 44 41 37 37 34 30 30 35 35 33 30 26 24 22 23 23 25 23 22 22 23 22 23 27 26 25 22 20 15 11 9 10 8 6 7 11 11
41 43 41 41 45 46 46 47 46 46 43 39 42 37 33 34 35 34 32 33 31 28 23 21 20 20 19 18 19 21 21 20 20 24 26 24 21 17 15 7 8 8 9 7 6 9 10
42 43 42 42 45 44 45 46 46 45 44 44 38 39 37 33 31 31 28 31 28 24 21 18 21 21 25 25 24 22 20 20 20 19 25 21 20 18 13 14 6 17 22 23 20 19 20
42 43 44 44 44 44 44 45 45 44 44 41 39 38 38 33 31 30 27 24 23 24 22 22 26 27 27 24 15 11 13 14 13 13 16 19 17 18 14 11 10 19 30 28 27 23 27
42 43 44 43 43 43 43 44 45 44 43 41 41 40 38 36 33 26 23 24 23 24 26 29 30 30 26 25 19 8 9 12 20 18 22 19 19 19 17 13 11 28 26 26 28 22 27
43 43 42 42 42 41 41 41 43 42 42 40 40 43 41 37 30 26 24 24 22 23 21 26 26 25 27 28 25 19 14 13 17 23 21 22 21 18 17 18 25 25 30 30 23 24 28
43 43 41 40 39 40 41 42 42 43 41 43 41 41 41 38 30 29 27 26 23 21 23 24 24 26 25 25 25 23 27 20 25 28 23 21 20 23 23 24 20 28 27 25 29 29 28
42 41 40 40 43 42 42 44 44 43 44 43 35 38 39 36 32 35 34 32 30 26 25 26 30 27 31 30 27 27 27 30 27 22 28 27 30 29 26 26 30 28 30 32 32 29 29

GFSGBSN_sfc_dewp_114.txt.gz
Dewpoint
52 52 53 53 53 52 52 53 55 55 55 55 56 56 58 59 59 59 57 56 55 54 52 49 48 48 42 45 41 45 56 50 39 33 31 29 28 27 25 24 24 23 21 20 19 19 19
52 53 52 51 51 51 52 53 54 55 55 55 55 56 56 57 58 59 58 56 55 54 51 47 46 47 40 41 45 41 34 37 33 32 31 30 27 27 25 25 23 24 23 22 19 18 19
50 51 50 51 51 51 52 53 52 53 53 53 54 55 55 55 56 57 58 56 54 53 48 46 46 38 39 42 45 45 33 30 31 32 32 30 30 27 25 24 24 23 21 21 21 21 23
49 48 49 51 52 52 53 52 52 53 53 54 54 54 54 55 54 55 57 55 54 51 47 46 46 38 41 45 44 43 43 42 33 31 32 32 31 28 26 25 23 22 23 22 22 21 21
48 48 48 49 51 51 52 53 53 53 54 54 54 53 53 54 54 54 56 54 52 49 46 45 41 41 40 44 42 41 38 35 34 33 31 30 29 28 28 24 23 24 23 24 23 22 21
48 48 47 50 50 51 52 53 53 53 53 53 53 53 53 53 54 54 53 51 49 46 43 40 38 39 40 38 39 35 29 30 32 28 27 28 25 24 25 24 21 21 19 18 19 19 19
47 48 47 47 50 50 51 51 51 51 52 52 51 52 52 53 54 52 49 48 45 44 41 41 34 36 33 35 31 31 32 29 26 25 20 26 25 24 24 25 23 21 20 19 20 19 20
50 48 48 47 48 49 49 50 50 50 51 51 51 51 52 53 53 51 50 47 43 44 40 41 41 39 37 35 33 34 35 31 30 24 23 22 24 26 26 23 22 21 20 19 19 18 19
49 49 48 48 48 48 48 49 49 50 50 51 50 51 52 52 53 51 50 47 48 43 41 37 34 35 35 36 33 33 32 33 31 28 27 26 24 23 20 18 17 17 17 19 16 14 17
49 49 49 47 48 49 50 50 50 50 50 50 50 50 52 52 50 50 49 51 43 49 37 28 26 32 33 31 32 33 34 32 30 29 29 25 23 21 21 20 19 17 20 20 17 17 18
48 48 49 49 50 50 50 50 50 49 50 50 49 50 51 52 49 47 46 41 46 48 23 13 19 29 28 32 28 23 32 32 30 29 28 27 25 23 25 26 25 23 23 25 23 23 24
48 48 49 49 49 50 50 50 50 49 49 49 49 50 51 51 51 48 41 42 48 35 25 17 21 25 27 28 29 27 24 26 29 28 28 27 28 26 26 30 28 20 18 23 25 21 19
48 48 48 48 49 49 50 50 50 49 49 49 49 51 51 52 47 44 42 46 34 28 20 15 16 22 21 21 24 26 26 22 21 25 26 25 24 24 28 26 23 20 20 17 23 19 17
47 48 48 48 48 49 49 50 49 49 48 48 49 50 52 51 47 43 45 39 30 22 23 14 16 17 20 21 22 22 21 19 21 22 21 20 22 21 25 26 22 20 21 24 17 17 18
45 46 47 48 48 48 49 49 49 48 48 48 49 51 51 50 46 44 43 32 27 23 17 20 19 18 16 18 19 18 18 17 19 20 20 23 22 25 24 25 22 22 22 25 25 26 21
44 44 46 47 47 48 48 48 48 48 48 48 47 45 43 49 46 46 39 33 30 26 23 21 19 21 21 17 17 19 18 19 18 20 22 23 21 30 26 19 18 17 16 21 30 23 15
43 43 44 46 47 47 47 47 46 47 48 49 46 39 42 47 47 40 33 35 34 30 27 28 25 21 24 23 24 28 23 17 22 21 22 22 26 28 27 22 18 17 15 17 19 18 21
43 43 44 45 46 46 47 47 46 49 51 47 42 34 43 46 34 34 34 38 37 31 33 32 28 26 25 25 25 20 25 26 28 26 25 30 28 26 24 21 18 17 19 19 20 16 18
43 43 44 44 45 46 46 47 46 45 46 43 35 34 41 43 31 33 34 38 36 34 32 29 25 24 26 26 24 22 19 28 27 30 29 31 30 21 19 24 19 17 17 17 22 23 18
42 43 43 43 44 46 46 46 47 46 44 44 37 30 33 35 37 35 33 35 34 35 34 28 25 25 24 24 27 25 21 25 27 26 32 32 26 25 22 19 16 18 16 13 18 21 18
42 42 42 42 43 45 45 47 47 46 46 44 39 34 34 29 31 36 36 35 34 35 33 34 31 28 24 24 28 28 26 26 25 29 25 26 21 21 19 15 13 9 8 12 11 14 17
41 42 41 42 43 44 44 45 47 47 45 42 35 37 36 35 32 34 37 35 34 33 31 32 27 27 25 28 28 27 25 27 28 26 28 27 24 21 18 15 11 9 6 6 7 9 11
40 41 41 41 42 43 44 45 47 47 44 39 41 43 38 35 33 33 35 32 32 30 29 28 27 28 29 28 27 25 29 27 24 27 29 26 23 19 15 12 8 8 10 7 8 9 10
39 40 40 40 41 43 43 45 46 46 44 43 43 41 38 34 34 35 31 31 33 33 30 31 30 28 26 25 24 23 21 21 20 20 25 22 22 19 16 14 7 10 22 22 21 21 23
39 40 41 41 43 43 44 42 48 46 44 43 44 42 39 36 31 31 35 34 33 34 28 25 27 27 29 23 17 14 15 14 15 16 17 21 21 19 15 11 11 15 28 27 24 19 26
42 43 42 43 44 43 44 45 46 45 44 43 43 46 41 38 34 33 35 36 35 32 29 29 29 29 28 33 22 8 9 11 14 11 11 13 18 21 16 12 11 26 27 25 26 20 26
41 42 43 44 44 44 45 45 46 45 44 43 44 45 41 38 37 35 33 34 31 27 26 28 28 26 27 29 25 18 12 12 17 17 18 19 18 16 17 18 24 26 28 28 21 21 26
42 43 42 44 44 44 44 44 45 44 43 42 45 46 43 39 34 34 32 31 28 25 26 28 23 23 25 27 24 24 26 16 26 31 22 20 20 21 21 21 19 27 28 24 27 28 28
42 44 43 43 42 42 42 42 43 43 43 43 42 45 43 39 34 35 34 33 31 29 27 29 29 28 33 28 26 28 28 30 28 22 29 25 30 29 26 25 27 28 27 30 30 28 29

GFSGBSN_sfc_dewp_117.txt.gz
Dewpoint
51 52 52 53 52 52 51 52 54 55 55 55 55 55 55 55 56 58 58 58 57 56 54 52 50 49 42 43 43 45 55 53 44 36 31 30 29 28 27 25 25 25 24 24 24 23 21
51 52 53 52 51 51 51 53 53 54 54 54 54 55 55 56 56 56 57 58 57 55 53 50 48 48 40 41 45 46 45 40 33 32 31 31 29 29 27 25 25 25 24 23 23 23 23
49 50 51 51 52 51 51 53 52 52 53 53 54 54 54 55 55 55 55 57 56 55 52 48 47 42 38 42 46 45 44 42 36 36 34 35 32 30 29 27 27 25 23 23 23 22 22
49 49 49 51 51 51 52 53 52 52 53 54 54 54 54 53 54 54 54 55 56 54 50 47 47 39 38 44 44 43 44 43 42 32 32 32 33 31 30 29 26 23 24 22 23 24 24
48 48 48 50 51 51 52 52 53 53 54 54 53 53 53 53 53 53 54 55 54 51 48 46 42 39 39 44 43 44 44 42 39 41 33 31 31 31 29 27 25 24 22 22 23 25 25
48 49 48 49 50 51 52 52 53 53 52 52 52 52 52 52 53 53 53 52 51 48 46 43 40 37 38 35 38 40 42 39 35 35 33 29 28 25 25 26 23 23 22 22 20 21 21
49 48 49 49 50 50 50 52 52 51 51 52 52 52 52 52 53 51 50 48 44 42 42 40 38 36 34 36 35 37 31 31 31 31 26 27 25 24 23 24 25 24 23 22 22 22 21
51 51 49 49 48 48 49 49 50 51 51 51 51 51 52 52 52 52 49 46 44 43 40 42 42 39 36 36 35 34 35 31 28 24 25 22 22 26 27 27 26 25 22 20 19 19 18
50 50 50 49 49 48 48 49 50 50 50 51 51 51 51 52 51 51 49 47 48 43 39 37 38 40 40 40 36 35 34 33 31 29 28 24 24 24 24 23 23 23 21 19 17 20 23
49 50 49 49 48 48 50 50 51 51 50 50 51 50 50 51 48 49 47 50 47 46 33 32 30 33 34 37 33 36 36 33 32 29 30 29 29 27 25 23 20 19 24 24 23 27 23
49 50 49 49 49 49 50 50 51 51 50 50 49 50 50 51 49 45 45 49 45 46 17 17 23 31 33 32 30 29 32 33 31 31 30 28 29 28 28 26 24 23 30 21 19 24 27
49 49 49 49 49 49 50 50 50 51 51 50 49 50 50 48 49 48 48 45 47 33 22 23 25 28 28 30 31 29 29 33 33 31 31 29 29 28 27 27 29 31 27 23 21 24 23
47 48 49 49 49 49 50 49 50 50 50 50 49 49 49 49 46 46 43 46 33 25 21 13 16 24 26 25 27 26 27 27 23 21 23 25 27 28 29 27 31 31 24 21 20 20 17
47 47 47 48 49 49 49 49 49 50 50 49 49 49 47 48 51 43 47 39 27 24 18 16 18 18 20 22 22 22 25 24 25 22 21 21 22 25 31 28 29 28 22 24 19 19 20
45 46 47 47 48 48 48 49 49 50 49 49 48 45 49 52 49 46 43 30 26 24 19 21 20 19 18 18 21 20 22 23 21 20 20 21 23 25 26 26 29 25 21 25 25 26 23
44 44 46 46 47 48 48 48 48 49 49 48 42 43 44 48 47 47 38 30 29 28 24 24 22 22 19 20 22 20 21 21 21 21 24 25 22 29 30 22 22 22 20 25 29 21 18
43 44 45 45 46 47 47 47 47 48 48 48 42 39 43 48 47 42 33 33 32 32 29 28 26 24 26 25 27 30 33 33 29 23 24 28 26 28 30 26 19 19 19 20 28 25 21
43 43 44 45 45 45 46 47 47 47 47 47 41 33 43 47 36 34 33 34 35 32 33 31 32 30 31 29 27 29 32 36 33 30 27 31 31 27 28 28 26 22 23 22 20 16 20
43 43 43 44 44 45 45 46 47 47 45 43 36 34 42 42 32 31 34 34 35 33 34 32 32 31 34 27 26 28 29 31 32 32 31 30 28 22 22 26 29 27 21 23 25 25 21
42 42 42 42 43 44 45 45 46 47 45 43 36 29 33 36 38 35 32 32 33 36 34 34 34 32 28 26 29 27 27 30 32 30 35 33 29 25 20 24 26 22 21 19 21 21 18
41 41 42 42 42 43 43 45 45 47 46 44 37 33 32 27 31 35 36 34 31 32 34 35 34 32 29 27 26 27 28 27 28 32 30 27 22 25 23 21 21 25 21 16 16 19 19
40 41 41 41 41 42 42 43 45 46 46 41 33 34 37 33 32 33 35 35 31 31 33 36 32 32 33 32 31 32 29 29 28 30 27 28 25 23 21 19 18 15 11 10 12 14 13
39 39 40 41 41 41 42 43 44 45 46 40 40 42 39 33 34 31 31 33 34 34 36 35 34 34 33 33 34 31 27 31 31 29 28 27 25 22 19 18 15 12 15 16 12 24 23
38 39 40 40 41 41 42 43 44 45 45 42 42 40 36 31 34 31 30 32 34 35 34 30 36 33 35 36 30 27 25 23 24 30 29 27 25 23 20 17 9 23 25 24 22 26 29
38 39 39 40 41 41 42 43 44 44 42 43 44 41 37 32 32 32 32 32 33 36 34 32 33 36 36 31 24 17 17 18 18 21 22 26 24 20 16 16 17 21 26 23 21 24 27
39 39 39 40 40 41 42 43 44 44 42 44 42 42 40 35 33 33 33 37 34 33 34 35 34 36 33 32 24 14 15 15 15 13 17 21 21 20 19 14 4 24 27 27 27 17 26
40 39 40 41 42 43 43 43 44 43 43 43 42 43 41 35 37 34 33 34 38 35 31 30 28 27 29 27 25 20 17 18 16 18 16 19 20 17 18 14 22 26 29 28 16 15 25
42 43 42 43 43 44 44 44 44 45 45 42 42 45 41 36 37 40 39 37 38 32 28 29 26 26 26 25 24 23 22 22 25 27 22 19 19 17 16 13 15 27 28 24 26 28 28
41 41 42 41 44 44 43 44 46 45 45 43 41 45 45 39 37 40 38 39 37 34 30 29 29 27 31 27 26 27 23 25 24 21 30 21 23 26 22 20 28 28 28 31 31 28 29

GFSGBSN_sfc_dewp_120.txt.gz
Dewpoint
53 52 53 53 53 51 51 52 54 54 55 55 55 55 54 54 55 56 56 57 57 58 56 54 52 50 43 43 44 46 56 52 41 36 31 31 30 29 28 26 26 25 25 25 25 24 24
53 53 53 54 52 50 50 52 52 53 53 53 53 54 54 54 54 55 55 55 56 57 56 54 49 48 40 39 42 45 46 41 34 34 31 31 30 31 29 27 26 26 25 24 24 24 24
50 51 51 52 52 51 50 53 53 52 52 53 54 54 54 53 53 54 55 54 55 56 55 52 47 44 39 41 45 44 43 43 42 36 34 35 35 32 30 28 30 26 24 24 24 23 23
50 50 50 51 52 51 52 52 53 52 53 54 54 53 53 53 53 53 53 54 54 56 54 50 47 41 40 43 44 43 43 43 44 44 37 32 33 33 31 30 28 25 25 23 24 25 24
49 49 49 50 51 51 51 52 52 53 53 53 53 52 52 52 52 53 54 54 55 55 51 48 43 40 39 44 37 44 44 43 44 43 33 32 33 30 31 27 25 26 22 22 23 25 25
49 49 49 50 50 50 50 51 52 52 52 52 52 52 52 52 52 53 53 52 52 49 47 46 42 39 38 34 38 43 44 44 43 39 36 33 28 26 25 25 22 24 23 25 22 23 23
49 49 49 50 51 48 48 49 52 51 51 51 51 52 52 52 53 52 49 47 41 41 42 39 36 37 33 37 36 37 39 41 36 34 30 30 25 23 24 25 25 26 24 23 24 24 21
52 51 51 50 49 48 47 48 51 50 51 51 51 51 52 52 52 52 50 44 44 44 39 42 42 39 37 38 36 36 36 32 30 27 29 26 24 26 26 25 24 24 25 24 25 24 21
50 50 51 50 50 49 48 48 50 50 50 50 51 51 51 51 51 51 48 45 48 44 38 39 41 41 41 41 37 35 36 34 32 26 24 23 24 25 26 25 25 25 23 23 22 23 25
50 50 51 50 50 50 49 50 50 50 50 50 50 50 50 50 46 46 45 47 47 46 34 29 36 34 39 40 38 39 37 34 32 30 30 29 28 27 27 27 26 23 23 24 25 21 19
50 50 50 50 49 50 49 50 50 51 51 51 50 49 50 51 46 44 41 46 47 44 -3 17 27 36 38 35 31 29 37 35 32 31 30 29 29 29 28 28 29 28 30 30 26 24 22
50 50 50 50 50 50 50 50 50 50 51 51 50 50 50 46 47 47 48 48 45 22 4 21 28 30 33 33 31 29 32 34 34 32 32 31 32 30 29 29 29 29 26 23 22 21 21
49 49 49 50 49 49 50 50 50 50 50 51 50 50 48 47 43 47 46 46 31 19 18 17 23 29 30 30 30 30 28 28 27 28 28 29 28 27 29 27 30 30 29 26 20 18 17
48 48 48 48 49 49 49 49 50 50 50 50 50 49 47 46 46 46 47 39 23 20 22 17 17 16 24 25 27 29 26 26 27 23 21 22 21 24 30 28 27 30 30 26 19 18 18
48 48 48 48 48 49 49 49 49 49 49 50 49 44 43 47 48 46 42 30 23 24 22 22 20 19 16 16 20 23 25 24 25 26 23 22 21 26 24 27 29 26 24 27 26 26 23
46 46 47 47 48 48 48 48 49 48 48 48 43 39 39 49 49 45 37 29 27 28 26 25 23 23 21 22 23 21 20 28 27 25 24 23 20 29 30 23 23 26 26 23 28 21 19
46 46 46 46 47 47 47 48 48 48 48 48 43 35 39 46 48 41 31 29 28 28 29 29 25 25 26 27 27 26 28 32 32 29 30 28 25 26 29 24 20 19 19 21 28 27 21
45 45 45 46 46 46 46 46 47 47 47 45 40 32 40 48 36 36 32 33 32 30 31 28 29 28 29 30 28 28 31 32 37 32 26 31 28 25 27 28 24 23 21 23 24 21 22
44 44 44 44 45 46 46 46 47 47 46 41 34 32 43 43 30 31 34 32 32 31 32 32 31 33 31 29 26 27 32 35 38 33 31 30 27 22 22 25 28 27 24 24 27 26 21
42 43 43 43 44 45 45 45 45 46 47 42 35 30 34 37 38 33 30 31 32 34 33 33 34 35 34 31 32 27 27 30 31 31 39 34 28 23 18 22 26 23 25 23 24 25 24
42 42 43 43 43 44 44 44 44 45 46 41 37 32 31 28 31 34 34 31 29 29 33 35 33 31 33 27 27 27 28 27 29 33 30 28 24 26 25 25 26 31 29 25 21 21 19
41 41 41 41 42 42 42 43 44 44 45 39 33 33 37 31 30 32 33 31 29 32 31 31 32 33 34 31 28 28 28 26 25 29 26 28 25 22 20 21 19 21 22 18 14 15 17
40 40 40 41 41 41 41 43 44 44 44 38 38 41 38 34 32 31 29 30 31 32 33 31 31 34 32 33 35 37 36 32 32 28 27 26 25 21 19 18 14 13 16 14 13 27 25
39 39 40 40 41 41 41 42 43 44 43 40 41 39 34 30 32 32 30 31 31 31 33 36 35 35 36 35 35 35 34 26 33 32 30 26 25 24 21 17 12 23 26 25 26 26 29
39 39 39 40 40 41 42 42 43 43 44 40 41 39 35 30 33 33 32 32 31 32 33 34 35 37 37 34 31 27 23 22 21 27 28 29 25 20 16 17 18 23 25 22 20 23 26
38 38 39 39 41 41 42 42 43 43 44 42 41 42 39 34 30 33 33 33 30 30 32 36 38 38 36 32 29 22 20 20 17 16 23 25 24 19 18 13 3 14 27 28 24 15 25
39 39 39 39 40 41 42 42 42 43 43 42 41 42 40 34 36 36 33 32 37 36 33 34 35 36 32 27 24 21 18 18 15 16 16 20 20 17 17 13 19 26 28 29 17 14 24
40 39 39 40 40 41 41 41 42 42 43 42 39 44 39 35 37 38 38 35 38 35 31 32 30 30 31 25 25 24 24 22 24 25 19 17 18 16 15 10 11 26 27 24 24 25 26
41 41 41 40 40 41 42 42 43 43 43 43 39 44 44 38 37 41 40 40 38 35 33 29 29 28 31 28 27 28 25 22 25 21 29 19 21 19 21 17 25 27 24 29 31 28 28

GFSGBSN_sfc_dewp_123.txt.gz
Dewpoint
56 55 55 54 54 52 52 53 53 54 54 54 54 54 54 53 54 55 55 55 56 57 58 56 53 51 44 43 43 46 56 53 40 35 30 31 30 29 27 27 27 25 25 25 25 25 24
55 54 54 55 53 51 51 53 52 53 52 52 53 54 53 52 52 53 54 54 54 56 57 55 50 48 40 38 40 45 43 42 36 34 32 31 30 32 31 29 27 27 26 26 25 25 25
53 53 53 54 53 51 50 53 52 51 52 53 54 53 52 52 52 52 53 54 54 55 55 53 48 44 41 40 43 43 42 42 42 41 39 36 34 30 31 29 31 28 26 26 25 26 23
51 51 51 52 52 52 51 51 52 52 52 53 52 52 52 52 52 52 53 54 54 52 54 51 48 42 41 44 43 43 43 42 43 43 43 42 34 32 31 30 29 26 26 24 25 24 25
50 50 51 51 50 50 51 51 51 53 53 53 51 52 52 52 52 52 53 54 54 54 51 49 42 41 40 44 36 38 43 42 44 44 43 40 34 30 31 28 26 26 24 22 23 25 24
50 50 50 49 51 51 51 51 51 52 52 51 51 51 51 51 52 52 51 52 52 50 48 46 43 39 37 31 36 42 44 43 43 42 37 36 29 26 25 26 24 23 23 23 23 24 24
50 50 49 50 51 49 48 48 50 51 50 50 50 50 51 51 52 52 48 44 40 39 43 38 37 38 35 36 37 34 43 43 39 35 31 30 29 25 26 25 26 25 25 24 24 25 25
52 52 51 51 51 49 48 48 50 50 50 49 50 50 51 51 51 51 47 41 42 44 39 42 41 40 38 38 36 36 36 36 33 28 30 27 26 28 27 26 25 24 23 23 25 26 25
51 51 51 51 51 50 49 49 50 49 49 49 50 50 50 50 50 49 43 43 47 46 38 38 41 41 40 41 37 34 36 33 29 27 26 26 26 28 26 25 24 24 24 24 24 24 24
50 49 50 49 52 51 51 50 50 50 50 49 49 50 49 50 43 44 42 45 46 47 32 27 37 38 40 40 38 39 36 33 32 30 29 27 26 24 24 25 25 23 25 25 27 26 24
50 50 49 50 51 51 50 50 51 51 50 51 50 49 49 50 45 41 41 46 47 41 -5 14 33 38 39 37 33 36 38 34 30 30 31 29 29 30 28 27 29 28 31 29 28 26 22
50 50 50 50 50 50 50 50 50 51 51 51 51 50 49 44 46 45 47 47 44 17 -5 13 32 34 36 36 32 34 35 36 34 32 31 30 32 30 29 29 29 30 29 28 26 22 24
49 49 49 49 49 50 50 50 50 50 50 51 51 50 47 46 41 46 45 46 29 10 12 12 26 32 32 31 31 30 31 31 28 28 28 29 30 31 32 30 30 29 27 27 23 19 18
49 49 49 49 49 49 49 50 49 49 50 50 50 49 47 45 45 45 47 38 21 13 16 20 15 20 29 28 29 29 27 27 29 27 23 22 21 24 27 27 27 29 28 24 19 18 18
49 48 49 49 48 49 48 49 49 49 48 49 49 42 44 44 46 45 42 29 22 23 22 20 17 13 11 18 23 27 28 25 26 27 24 23 22 25 27 28 28 27 27 30 25 24 23
47 48 48 48 48 48 48 48 48 49 48 49 41 41 39 45 46 44 36 27 27 28 25 26 20 21 20 21 23 21 23 26 26 27 27 24 21 27 29 23 23 26 28 23 26 20 19
47 47 48 48 48 47 47 47 48 48 48 47 40 32 37 45 47 40 28 27 28 27 28 29 26 22 25 28 27 27 26 29 31 28 26 24 24 25 28 24 22 19 21 23 28 25 21
47 47 47 47 47 47 47 47 47 47 47 43 37 30 37 47 35 35 30 28 30 26 29 27 28 27 26 28 28 29 29 29 33 32 27 31 29 25 26 28 24 22 21 23 22 20 23
45 45 46 46 46 46 46 46 46 46 46 42 34 33 39 43 29 31 31 30 29 29 29 30 31 30 31 27 26 28 28 33 37 32 30 31 26 24 24 24 27 26 25 24 27 25 21
43 43 44 45 45 45 45 46 45 45 46 42 35 29 33 38 36 31 28 28 29 32 31 31 33 34 33 31 33 31 28 30 33 32 38 34 27 23 19 20 25 25 25 24 25 24 23
42 43 44 44 45 45 45 45 46 45 45 40 36 32 32 28 29 33 31 27 27 27 31 33 31 31 31 29 29 30 30 28 27 33 32 30 25 26 26 25 28 29 28 28 26 27 25
40 42 43 44 43 44 45 45 45 45 45 38 32 31 36 32 29 28 31 31 27 27 27 29 31 31 33 30 29 26 29 26 26 29 25 28 25 23 21 22 22 25 28 27 27 26 23
40 41 42 42 43 43 43 44 44 45 43 36 36 36 34 29 32 28 26 27 28 30 31 30 29 32 31 32 35 36 36 34 32 29 27 26 27 26 24 20 15 14 21 24 23 25 24
40 40 41 41 42 42 42 43 44 44 43 37 36 35 31 26 29 29 28 27 27 29 28 31 31 31 31 37 37 36 36 33 33 34 31 27 28 28 24 17 12 22 26 27 25 27 29
38 39 40 40 41 41 42 42 43 44 43 38 37 36 32 25 25 27 30 33 28 28 30 30 33 35 39 37 33 29 28 29 30 36 36 31 29 25 19 17 17 22 24 20 20 20 26
39 39 39 39 41 42 42 42 43 43 44 40 38 38 37 29 25 29 32 35 32 32 32 33 36 39 40 33 30 24 22 25 23 23 33 28 27 23 18 14 5 14 27 27 23 15 25
38 38 39 39 40 41 41 42 43 43 43 40 37 39 36 31 33 33 29 30 34 33 32 34 37 38 38 31 27 24 22 22 21 21 23 26 22 21 18 15 18 24 27 28 14 14 25
39 39 40 40 40 41 41 42 42 43 43 41 38 40 37 33 33 36 37 34 35 34 31 35 34 34 32 28 27 24 21 21 22 23 22 22 20 19 17 13 13 27 27 22 21 25 26
39 39 40 40 40 40 40 41 42 42 43 42 35 41 41 36 34 40 39 40 39 38 35 36 34 32 33 29 27 28 24 21 24 19 28 17 21 18 20 19 25 27 23 27 28 25 27

GFSGBSN_sfc_dewp_126.txt.gz
Dewpoint
56 56 56 55 54 53 52 54 53 54 54 53 53 53 52 51 52 53 54 54 54 55 57 55 53 51 45 41 36 45 52 52 41 33 30 31 30 29 27 28 27 26 26 26 26 26 25
56 56 55 55 54 52 51 53 51 53 52 52 53 52 52 51 51 51 53 53 54 55 56 54 51 49 43 29 37 44 42 41 38 33 32 31 30 32 31 29 27 28 27 27 27 27 27
54 54 54 55 54 52 51 53 52 52 51 52 52 52 50 50 51 52 52 53 54 54 53 52 49 43 42 34 43 43 42 41 42 41 40 37 33 29 31 29 31 29 26 27 27 27 25
53 53 53 54 54 52 52 51 53 51 51 52 51 51 51 51 52 52 53 53 54 53 53 51 47 42 38 44 44 43 43 42 43 43 42 42 41 33 31 31 29 27 27 25 26 25 25
52 52 51 52 53 52 51 51 51 52 52 53 50 51 51 51 52 53 53 53 54 53 52 49 42 41 36 43 36 36 43 41 43 43 43 42 35 31 30 28 27 26 26 23 23 25 25
52 51 51 51 51 51 50 51 51 52 52 51 49 50 51 51 52 52 51 52 51 49 48 45 43 35 33 26 36 41 43 44 43 43 40 38 30 26 26 27 22 24 23 24 22 24 25
51 51 50 51 51 49 49 49 50 49 51 49 48 49 50 51 51 51 47 43 37 35 40 33 34 35 35 36 38 35 43 43 37 35 32 33 32 30 33 27 26 25 24 24 24 25 24
52 52 51 51 51 50 49 48 49 51 50 49 49 49 49 50 50 50 45 39 42 43 36 41 40 39 39 39 36 34 37 37 34 32 30 27 27 31 29 27 26 25 24 23 24 26 25
52 52 52 51 52 52 50 50 49 49 49 49 49 49 48 49 50 46 41 41 46 45 35 36 40 40 39 40 35 34 34 34 30 28 29 28 29 29 27 26 25 24 24 24 24 25 25
50 51 51 51 50 51 52 51 50 50 50 49 49 49 49 49 42 42 40 44 45 44 24 19 35 39 41 40 37 39 35 33 31 27 27 26 27 26 26 24 25 23 25 25 25 27 25
49 50 50 50 50 51 51 51 51 51 51 50 49 49 49 46 42 40 42 45 45 33 -6 17 35 40 40 37 35 37 37 33 30 30 30 28 30 28 25 24 26 25 30 29 29 27 24
49 49 49 50 50 50 50 50 50 51 51 50 50 49 48 44 44 44 46 47 40 16 -7 7 34 35 36 36 34 36 34 35 33 30 31 29 31 29 29 30 30 31 30 29 26 24 24
50 49 49 49 49 49 50 50 50 50 51 50 50 50 47 45 39 44 45 45 24 5 5 10 28 35 33 31 30 30 33 32 29 28 28 29 30 31 31 29 30 29 27 24 21 20 21
49 49 49 49 49 49 49 49 50 50 50 50 50 49 46 45 44 44 47 36 15 6 9 18 15 29 29 29 29 29 29 28 31 27 24 22 20 27 29 30 27 28 27 25 19 18 18
49 49 49 49 49 48 48 49 48 49 49 49 49 45 45 44 45 44 42 28 17 19 19 22 10 9 9 14 27 26 27 26 27 27 25 23 22 25 28 29 28 27 27 29 26 24 23
48 49 49 49 48 48 48 48 48 49 49 48 43 40 40 43 45 43 37 25 26 27 25 25 12 19 16 20 21 21 21 25 27 28 29 26 22 25 26 23 23 26 28 23 25 20 18
47 48 48 48 48 48 48 48 47 48 48 46 40 32 36 45 44 37 29 27 27 27 27 27 25 22 25 27 28 27 26 26 30 28 28 26 25 24 28 24 21 22 25 26 27 25 20
46 47 47 47 47 47 47 47 47 47 47 44 38 30 37 45 33 30 29 28 31 25 29 27 28 27 25 27 26 27 28 29 32 31 26 29 26 23 25 29 27 23 25 25 25 21 25
44 44 46 47 47 47 47 47 46 46 47 42 34 31 38 43 25 27 27 27 28 27 26 27 29 27 26 22 21 27 24 27 32 33 29 32 29 26 24 23 27 25 24 25 27 25 21
42 42 44 44 46 46 47 46 46 46 46 42 34 27 33 38 34 29 26 25 27 31 28 28 31 32 31 30 31 29 29 30 33 37 39 36 28 25 20 20 25 26 26 23 25 21 20
41 41 43 44 45 46 46 46 45 46 46 41 35 31 29 28 30 32 32 27 26 26 29 31 29 28 29 28 29 30 31 31 28 32 36 33 27 27 26 26 26 24 26 27 23 23 23
40 41 42 44 43 44 45 45 45 46 45 39 32 31 34 30 28 30 32 27 27 26 27 28 28 30 30 27 26 23 27 27 26 28 26 29 28 25 22 24 24 24 27 28 28 27 26
39 39 41 42 43 42 43 44 45 43 44 37 36 36 32 27 28 27 24 26 26 29 29 28 28 29 30 30 32 34 34 33 32 29 27 28 28 28 25 23 22 22 25 26 26 25 23
39 39 40 41 42 42 43 44 44 44 43 38 36 35 30 23 27 27 27 26 26 25 27 29 31 30 30 36 36 35 36 35 33 33 31 31 29 29 26 21 15 21 26 27 26 26 28
38 39 40 40 41 42 44 44 43 42 44 39 38 35 31 24 24 25 28 28 31 31 28 27 28 32 38 36 32 30 30 31 32 33 33 31 31 27 22 19 18 19 24 23 21 19 27
37 38 39 40 40 42 43 43 44 44 43 40 37 38 35 26 23 24 24 26 26 28 30 29 30 34 36 34 31 25 22 24 23 28 34 35 32 28 21 17 8 14 26 26 22 14 26
37 38 38 39 40 41 42 42 43 43 43 41 36 38 35 29 29 31 25 26 32 33 32 33 34 35 35 31 27 25 25 29 24 22 28 28 28 24 22 17 18 21 28 26 13 13 25
39 38 39 39 40 40 41 42 42 43 43 41 37 38 35 30 29 31 35 32 33 31 27 34 34 35 32 29 29 26 25 26 25 24 25 25 24 23 22 19 15 27 27 21 21 25 26
39 39 40 40 40 40 41 41 41 42 43 42 36 39 40 32 28 33 30 31 33 34 37 36 33 33 35 30 28 29 25 20 22 19 27 21 26 22 24 22 26 27 24 27 27 26 26

GFSGBSN_sfc_dewp_132.txt.gz
Dewpoint
59 59 59 58 57 55 54 55 54 53 54 53 53 52 52 51 51 51 52 53 53 54 55 54 53 53 43 24 13 42 51 52 38 36 31 28 30 30 25 26 27 25 25 26 27 27 27
58 58 57 57 55 54 54 54 52 53 53 53 52 50 49 49 50 51 52 53 53 54 54 54 52 52 38 17 34 41 41 41 38 35 33 32 30 32 27 26 26 28 28 27 27 27 28
57 58 57 57 56 54 54 53 52 52 52 52 51 49 49 49 50 51 52 53 53 54 53 52 51 44 37 21 34 38 39 35 38 39 32 35 35 28 30 28 31 29 27 25 25 26 26
56 56 55 55 55 54 53 52 52 52 51 52 50 49 49 50 51 52 52 53 54 54 53 51 48 43 26 33 36 35 35 34 36 34 38 39 39 33 32 32 30 26 27 17 25 24 25
55 56 55 55 55 54 53 52 52 52 51 52 50 49 49 50 51 52 51 52 52 52 52 50 44 39 20 35 30 39 39 39 41 40 37 39 37 33 32 28 24 28 12 22 21 23 22
55 55 55 54 55 53 52 52 51 51 52 52 49 48 48 49 51 51 50 50 50 49 48 46 42 36 24 16 35 36 41 43 39 36 36 37 33 29 28 25 9 13 19 21 19 19 21
54 55 55 55 54 53 52 51 52 51 52 51 49 47 48 48 50 50 47 41 33 36 42 26 21 26 22 32 34 36 41 41 37 34 26 34 26 22 18 24 26 25 23 21 20 22 22
54 54 54 54 53 52 51 51 52 51 51 51 49 47 47 48 49 50 46 33 38 42 20 25 29 29 32 35 23 32 39 36 34 22 32 31 25 25 30 32 30 28 25 21 19 22 24
53 53 53 53 53 52 51 51 52 50 51 50 49 48 46 48 48 47 43 37 46 46 31 18 30 30 30 32 16 10 33 32 29 23 27 21 20 29 33 29 28 24 23 19 20 21 23
52 52 52 53 53 53 52 52 52 51 51 50 49 48 48 47 43 44 42 45 46 47 24 12 25 33 38 34 26 30 27 20 25 20 22 24 21 27 25 21 21 20 21 23 21 22 19
52 52 52 52 52 51 51 51 51 51 51 50 49 48 48 46 44 41 44 47 46 43 11 14 31 38 38 31 35 36 32 23 14 19 24 16 26 26 25 23 24 21 26 25 27 26 25
51 51 51 51 51 51 51 51 51 51 51 50 50 49 49 46 46 45 45 47 46 28 3 13 33 35 34 33 33 32 28 32 30 23 26 19 30 28 22 26 26 29 28 27 28 25 18
50 51 51 51 50 50 51 50 51 50 50 50 50 50 46 43 37 45 46 47 27 11 -3 8 24 32 30 26 31 32 26 28 22 21 21 22 23 24 28 26 29 28 26 18 15 19 13
50 50 50 50 50 50 50 50 50 49 50 50 50 50 46 43 45 45 47 37 20 -9 -9 11 17 29 23 27 26 30 29 25 28 24 21 15 14 25 29 26 21 26 24 20 12 10 12
49 50 50 50 50 50 49 49 49 49 49 50 49 48 46 48 47 44 43 30 -1 -9 3 8 8 -1 7 23 24 26 27 23 23 28 21 21 18 24 28 30 26 27 26 24 24 21 20
49 49 50 49 49 50 49 48 49 49 48 49 44 42 41 48 48 42 38 22 12 16 21 17 -2 4 -1 1 13 18 18 22 26 27 30 24 15 11 21 28 28 27 26 25 27 18 13
48 48 48 49 49 48 49 48 48 48 49 46 41 38 43 48 46 38 32 23 18 25 25 17 10 9 10 13 15 12 8 24 28 25 25 25 25 17 27 23 17 25 26 27 26 24 19
46 47 47 48 48 49 48 49 48 48 48 44 41 33 42 47 36 35 30 24 29 22 26 23 24 21 13 14 16 16 16 24 29 23 15 18 18 17 14 21 28 26 26 26 27 21 28
43 44 45 45 46 48 47 48 48 48 47 44 37 36 43 44 32 31 24 23 24 25 20 21 19 21 17 16 15 14 14 20 28 23 23 26 19 15 7 17 29 28 28 28 32 34 28
41 43 44 45 46 46 46 48 48 48 48 44 36 32 35 39 34 28 23 21 22 26 23 26 25 28 22 20 20 16 22 30 32 30 38 36 28 23 12 11 21 25 25 26 29 28 24
40 41 43 44 44 45 46 46 48 48 48 42 37 35 34 30 32 30 26 21 20 20 23 23 22 24 22 20 19 21 22 23 26 30 28 29 25 24 21 21 22 23 22 22 22 25 26
39 40 41 43 44 44 45 46 47 47 47 41 33 35 35 29 29 29 28 25 19 18 19 19 22 21 22 21 19 17 20 22 21 23 28 31 26 26 22 21 21 21 20 21 21 23 23
39 39 40 42 42 43 43 44 45 47 45 34 39 39 33 30 30 30 28 25 21 23 23 22 22 24 25 23 27 29 31 29 29 28 28 27 27 24 24 21 25 22 21 20 21 20 23
38 39 40 40 41 42 42 44 44 44 46 39 39 37 34 30 31 29 25 26 24 24 24 24 27 26 26 30 30 31 29 28 28 28 28 26 25 27 24 22 21 18 22 24 24 25 26
38 38 40 40 40 41 42 43 44 44 47 41 43 41 35 30 26 26 27 25 25 26 27 25 25 26 29 29 26 25 22 22 22 23 24 27 27 26 23 17 17 18 28 32 30 23 25
38 38 39 39 40 41 41 42 42 43 45 42 41 44 38 33 26 24 26 26 27 27 27 28 29 32 33 31 28 21 14 12 16 22 29 26 26 27 22 17 15 28 26 26 25 23 25
37 38 39 39 39 40 41 42 41 42 43 39 37 42 39 35 30 28 26 27 28 27 25 25 29 31 34 31 27 21 17 15 14 14 21 27 30 26 26 24 20 21 28 26 24 27 29
37 38 38 39 39 40 41 41 42 43 43 40 38 41 39 36 32 30 28 27 27 27 22 25 28 31 33 29 27 24 23 18 20 21 19 18 23 26 28 26 24 29 27 22 30 31 31
38 39 39 38 39 40 41 42 42 42 43 41 36 41 43 37 34 33 31 31 28 29 29 31 26 32 34 31 29 29 28 29 23 21 25 28 31 29 28 26 32 31 33 32 31 31 32

GFSGBSN_sfc_dewp_135.txt.gz
Dewpoint
62 62 61 60 59 58 57 56 55 54 54 53 53 52 51 50 50 50 51 52 52 52 54 53 53 53 45 24 17 40 51 50 36 31 27 23 22 24 20 20 21 19 15 21 22 23 24
60 59 58 58 56 56 56 54 54 54 53 53 52 50 48 48 49 50 51 52 52 52 54 53 52 53 37 20 26 33 33 32 30 29 26 26 24 26 22 22 19 23 25 21 22 22 23
57 58 57 57 55 55 55 54 53 53 53 52 50 48 47 48 49 50 52 53 54 53 53 52 51 43 32 24 27 28 30 26 33 33 26 30 29 25 24 22 25 25 22 20 21 22 23
56 57 57 56 55 55 54 54 53 52 52 52 50 48 47 48 49 51 51 52 54 54 54 51 51 40 28 25 26 26 26 26 27 27 27 35 34 30 28 29 27 23 22 17 15 23 23
56 56 56 55 55 54 52 52 53 52 51 52 50 47 47 48 49 51 51 51 52 52 52 51 45 38 21 33 26 37 37 34 31 30 33 35 35 30 30 25 22 24 16 16 20 22 19
54 56 55 55 55 54 52 51 52 53 53 53 50 47 47 47 49 50 51 50 51 50 49 42 37 33 27 13 30 35 39 39 35 35 34 33 30 27 23 19 16 13 17 17 18 18 21
55 54 55 55 55 54 53 52 51 52 52 53 51 48 47 47 49 50 47 42 38 40 38 25 23 25 16 27 29 29 38 38 34 30 26 32 26 20 17 19 20 21 19 14 13 16 19
54 54 54 55 54 54 53 53 52 52 52 52 50 48 46 46 48 49 46 28 32 38 20 16 17 18 16 23 18 18 37 33 31 25 21 26 27 20 17 26 26 22 19 18 19 18 19
54 54 53 54 54 54 53 53 53 52 52 51 50 47 46 46 48 47 37 31 39 41 28 15 17 18 19 24 17 5 28 27 24 25 21 21 21 23 23 24 25 21 19 19 18 17 18
53 53 53 53 53 54 53 53 53 52 51 51 49 48 47 46 42 39 34 41 43 45 27 16 19 26 30 25 20 16 15 23 23 21 20 17 19 19 22 20 17 16 17 18 20 18 13
52 52 53 53 53 52 52 52 52 51 52 51 49 49 48 47 42 34 44 45 45 45 14 12 24 35 35 26 33 34 31 18 13 19 17 16 18 20 19 18 19 18 23 22 20 20 20
52 52 51 51 52 52 52 52 51 51 51 51 49 49 49 42 41 45 45 47 46 31 13 15 30 30 32 29 31 31 27 27 18 15 17 19 24 23 20 20 21 21 24 24 25 23 19
51 51 51 51 51 51 51 51 51 51 51 51 50 50 46 40 34 46 47 45 28 21 1 9 19 28 28 26 29 29 27 26 21 20 20 19 17 20 22 21 24 25 23 17 14 15 17
50 50 50 50 50 51 51 51 51 51 50 50 50 49 45 38 42 45 46 36 26 7 7 11 14 22 20 22 26 28 23 22 21 19 15 14 16 17 21 21 15 22 21 20 14 13 10
48 49 50 50 50 50 50 50 50 50 49 50 50 45 44 44 46 44 42 30 4 8 -2 0 13 16 15 20 21 24 24 18 19 22 16 13 13 20 22 20 19 16 19 19 20 22 17
45 48 49 49 50 50 50 49 49 50 49 50 43 45 40 47 47 42 38 27 10 6 12 10 2 -2 -2 4 7 13 14 15 19 25 24 18 18 20 18 23 22 21 16 20 26 21 14
45 44 47 49 49 49 49 49 49 49 49 49 45 39 43 47 42 37 33 24 19 10 16 14 9 6 7 7 7 10 9 20 24 22 21 20 20 17 11 15 14 12 21 21 21 18 17
46 45 43 48 49 49 49 49 49 48 48 46 43 35 45 44 36 36 32 22 23 14 21 18 19 15 9 10 11 11 9 20 27 25 17 18 20 14 9 10 16 23 25 22 25 23 22
43 45 44 45 49 49 49 49 49 49 48 45 38 37 44 44 33 32 24 24 22 21 18 17 13 13 12 11 9 12 11 18 23 24 23 23 23 13 9 9 10 12 18 20 19 22 25
43 42 44 45 47 47 47 49 49 49 47 45 36 32 37 40 33 27 24 20 19 21 20 18 17 18 19 14 15 12 12 20 30 24 34 31 19 16 8 6 11 18 22 24 27 29 29
41 41 41 42 44 45 47 47 48 49 47 42 38 35 35 31 33 30 26 20 18 17 21 19 20 20 18 15 16 15 16 16 29 33 27 28 25 21 17 15 16 16 14 14 14 17 20
40 40 40 40 42 43 45 46 47 48 47 40 33 37 35 30 32 31 29 24 20 17 18 19 19 17 19 17 16 15 16 17 18 20 22 23 23 24 17 13 13 13 11 12 13 15 15
39 40 40 40 42 42 42 44 46 47 47 35 39 42 34 32 31 29 29 25 22 21 20 17 18 19 19 18 23 26 27 26 23 22 24 25 26 23 21 20 19 17 17 15 14 15 16
37 39 40 40 41 42 42 44 44 46 45 38 39 40 37 33 32 29 24 24 22 22 23 20 21 21 21 30 30 29 26 24 24 24 24 24 24 24 22 21 18 17 14 15 20 19 20
36 38 38 39 40 41 42 43 44 44 45 41 42 40 37 34 28 26 27 24 24 24 24 20 27 27 32 29 26 24 22 22 21 21 21 22 24 26 22 19 16 15 20 30 29 22 24
36 37 38 38 40 41 42 43 43 43 44 45 43 45 40 36 30 25 25 27 28 28 27 25 25 27 28 30 27 21 14 12 14 12 18 20 23 25 24 18 17 26 17 17 26 26 25
35 36 38 38 39 40 41 41 42 43 43 40 38 43 41 37 31 29 26 29 26 27 28 28 28 29 31 29 26 22 18 14 13 12 15 27 28 26 25 24 21 19 19 24 23 24 29
35 36 37 38 39 39 40 41 42 42 42 42 40 43 38 36 33 32 31 30 28 27 27 27 27 29 31 28 26 24 25 20 19 20 17 15 18 25 26 26 22 24 27 25 31 32 30
36 36 37 38 39 40 40 41 42 42 41 41 37 42 43 39 37 35 32 32 28 27 26 29 26 25 32 29 27 26 26 29 24 23 21 24 26 28 23 25 33 34 33 34 31 31 31

GFSGBSN_sfc_dewp_138.txt.gz
Dewpoint
62 62 62 62 62 61 60 59 57 56 56 55 54 52 51 49 49 49 50 51 51 52 52 54 53 54 48 29 20 39 53 51 39 30 26 22 19 19 20 17 17 18 16 12 19 18 20
62 62 62 61 60 59 59 57 56 55 55 53 52 50 48 48 48 49 50 52 53 53 52 53 53 53 37 22 22 27 29 26 26 27 25 24 22 25 24 19 19 17 18 22 20 19 21
58 59 59 58 57 57 56 54 54 54 53 53 51 48 47 47 48 50 51 52 53 54 54 53 52 44 32 25 23 24 25 25 23 30 28 25 28 25 21 22 25 20 21 18 17 16 17
56 57 57 56 56 56 54 53 53 53 53 52 50 48 47 47 48 50 51 51 52 53 53 54 53 45 29 25 24 19 21 22 23 25 23 25 34 31 28 25 25 23 20 17 16 15 22
55 56 56 56 55 54 53 53 53 52 52 52 50 48 46 47 48 50 51 52 52 52 52 53 47 43 28 34 21 31 34 31 29 26 24 28 33 31 28 25 20 21 18 17 16 19 20
55 56 56 55 55 54 53 52 53 53 52 53 51 47 46 46 48 50 51 51 49 50 48 44 38 31 29 15 25 32 36 36 34 33 31 32 30 26 25 22 17 14 14 17 17 21 20
55 55 56 55 55 55 54 52 51 51 52 53 52 49 46 46 48 51 47 41 40 43 37 28 28 25 21 22 25 23 33 36 35 30 26 30 25 22 20 20 16 17 18 18 17 14 15
55 55 54 55 55 55 54 53 52 51 51 52 52 49 46 46 49 50 46 35 30 37 26 24 24 21 19 15 19 19 31 32 32 26 25 23 24 24 21 17 20 24 22 17 15 16 18
55 55 54 54 54 55 54 53 53 52 51 52 52 49 46 45 49 46 40 33 37 37 29 19 16 13 10 13 17 16 17 30 25 23 25 21 17 23 21 20 20 24 21 19 16 16 18
54 54 54 54 54 54 54 54 54 53 52 52 51 49 47 46 41 37 35 36 38 43 27 15 14 17 18 18 18 19 7 17 23 21 20 20 20 16 19 19 19 19 15 14 17 17 16
53 53 53 53 53 54 54 53 53 53 52 52 50 49 48 46 42 34 43 42 42 45 20 18 18 24 26 20 27 18 13 13 17 20 20 19 16 18 18 18 19 17 19 21 21 19 16
52 52 52 52 52 53 53 52 52 52 52 51 50 49 48 43 39 43 45 46 46 35 21 18 28 26 30 28 24 34 28 24 16 13 14 17 15 18 19 19 19 20 20 20 20 20 20
50 51 52 52 52 52 52 52 52 51 51 51 50 50 46 41 37 45 47 44 31 24 13 12 22 23 25 25 24 28 25 22 18 13 13 11 11 19 22 18 21 20 19 15 13 16 18
48 49 50 51 51 51 51 51 52 51 51 51 50 49 46 41 39 47 47 36 24 13 14 8 12 20 23 23 24 26 24 23 22 19 16 15 16 16 18 17 15 21 21 22 15 17 13
46 47 49 50 50 50 50 50 51 51 51 51 50 46 44 45 46 46 40 31 13 13 7 5 8 9 18 17 19 24 25 21 20 20 18 13 12 16 16 19 17 15 15 15 21 20 18
44 46 46 48 50 50 50 50 50 51 51 50 46 44 43 48 49 43 38 28 16 11 5 9 4 12 14 15 19 21 24 21 20 25 24 19 16 18 20 20 19 20 18 20 26 20 17
43 44 47 45 48 49 50 50 49 50 50 50 45 39 43 48 46 38 33 27 18 13 15 14 14 9 6 7 9 9 8 19 23 23 22 21 21 19 19 25 18 15 18 19 20 21 18
43 45 46 47 45 48 49 50 49 49 50 47 43 34 48 46 35 36 31 24 25 18 20 16 18 16 15 13 13 13 15 28 28 26 21 20 20 18 16 18 14 16 20 22 27 24 29
42 43 44 45 45 45 49 49 49 49 49 46 38 37 47 44 32 31 24 21 21 16 17 14 18 17 15 13 15 16 16 26 23 25 25 27 21 14 9 7 8 9 12 14 20 25 22
42 41 43 45 45 44 46 48 49 49 49 46 37 31 37 41 36 29 26 21 20 21 19 19 17 16 14 12 12 12 12 19 27 23 35 32 22 15 14 11 12 14 9 13 20 27 25
41 41 42 42 43 44 44 48 49 49 49 43 37 34 35 30 34 31 27 23 21 17 19 19 18 17 16 16 16 14 12 12 22 32 28 26 20 15 11 9 9 10 11 12 14 17 24
40 40 42 41 41 42 44 45 46 48 49 42 32 36 35 30 32 31 28 24 18 17 16 18 17 16 17 16 15 13 13 16 17 20 28 28 24 22 17 16 14 12 9 8 8 10 11
39 40 39 41 41 41 42 44 46 45 47 34 38 42 39 33 33 30 30 25 21 20 19 15 20 19 17 17 26 26 27 27 25 25 27 28 28 24 19 18 18 21 21 15 12 12 14
37 38 40 39 41 40 41 43 46 46 44 38 39 41 36 32 34 30 26 25 23 21 21 24 21 20 25 27 28 28 27 25 24 23 24 22 23 23 22 24 19 21 16 12 13 13 16
37 37 37 39 39 41 41 42 43 44 43 40 41 37 34 34 34 31 27 24 24 24 23 23 21 27 31 29 26 23 22 20 18 17 18 22 23 24 20 19 17 17 20 25 24 20 21
36 36 36 38 39 38 41 42 43 43 44 43 41 43 39 33 34 32 32 27 28 25 25 26 30 33 30 31 27 19 13 13 15 12 16 19 24 23 22 17 16 22 19 16 21 22 24
36 36 36 37 38 40 41 41 42 42 43 44 41 44 40 35 30 34 35 33 30 28 30 29 32 30 29 30 25 19 16 14 14 13 15 21 23 22 22 21 21 22 22 23 21 25 30
37 36 36 37 38 39 40 41 41 42 43 43 41 43 40 35 34 32 30 34 35 31 29 30 30 32 32 28 24 22 22 19 19 21 20 17 19 25 27 25 22 27 27 25 33 35 33
36 36 37 37 38 39 39 40 41 42 43 42 39 42 43 37 37 41 39 40 37 31 28 33 29 31 35 30 28 26 25 27 24 22 25 25 25 24 23 25 36 35 35 36 37 35 33

GFSGBSN_sfc_dewp_141.txt.gz
Dewpoint
62 62 62 62 62 61 61 61 60 59 58 57 56 55 53 50 49 51 51 52 53 53 53 53 55 55 49 37 29 38 55 52 46 36 30 26 21 19 20 23 22 21 19 18 18 20 21
59 61 61 61 61 61 62 61 58 57 56 55 54 52 50 48 48 50 52 53 53 54 55 54 55 54 44 25 24 38 39 28 31 26 28 27 24 26 24 22 17 21 19 21 22 22 20
58 57 57 60 60 61 60 57 56 55 55 54 53 51 50 48 48 50 52 52 52 53 54 55 55 47 37 30 25 26 25 26 24 25 28 28 31 31 30 24 27 28 24 22 21 19 17
57 57 56 55 55 55 55 55 55 54 54 53 50 49 50 49 49 50 51 52 52 53 54 54 55 47 39 31 26 21 20 19 23 23 26 23 30 34 33 29 27 24 25 19 19 18 20
57 56 56 55 55 54 54 53 53 53 53 53 51 50 48 49 49 50 51 51 51 52 53 53 46 46 37 36 24 22 28 29 25 25 26 22 35 32 31 27 24 23 19 19 20 20 22
56 56 55 55 54 54 53 53 53 53 53 53 51 50 48 49 49 50 51 51 49 49 46 45 43 31 30 22 25 32 37 37 33 29 28 33 31 29 27 25 22 20 19 19 18 19 21
56 55 56 55 54 54 54 53 53 53 53 53 53 50 49 48 48 49 48 42 38 42 41 37 35 28 26 24 26 26 30 36 36 33 29 31 27 25 25 24 24 22 19 19 19 20 22
55 55 55 55 55 54 54 53 53 52 51 51 52 50 49 49 48 50 46 40 35 37 33 33 33 33 32 28 18 21 25 34 34 31 28 26 27 28 26 25 23 22 23 23 22 18 17
55 55 55 54 54 55 54 54 53 52 52 51 52 51 49 48 48 44 38 39 37 40 34 26 23 18 23 21 18 15 22 33 31 30 28 25 24 27 25 23 22 20 23 24 21 20 17
55 55 55 54 54 54 55 54 54 53 52 52 53 51 48 47 41 39 39 42 42 43 32 25 18 18 16 15 18 13 17 24 27 25 25 24 25 24 22 21 20 18 22 21 20 20 17
52 53 54 54 54 54 54 54 54 54 53 52 52 50 48 47 41 40 44 45 43 44 21 21 20 21 20 15 22 19 16 17 16 21 23 23 21 19 18 19 21 20 24 23 23 21 18
51 51 51 53 53 53 53 54 53 53 52 52 51 49 48 43 42 38 46 47 46 35 22 22 29 25 21 22 21 31 21 24 22 17 16 18 20 19 21 21 21 23 22 21 23 20 19
49 50 52 51 52 52 52 53 53 52 52 52 51 50 47 41 40 46 48 46 33 26 20 21 26 25 28 28 25 29 29 25 16 13 12 11 11 13 21 22 25 20 19 17 15 18 19
47 49 49 51 52 52 51 52 52 52 52 51 50 49 47 42 44 46 47 39 24 19 19 19 17 22 22 25 25 24 26 23 21 17 18 11 15 11 15 21 20 21 20 21 16 16 17
44 46 48 49 50 51 51 51 52 51 51 51 50 47 44 44 44 45 42 29 20 18 15 12 13 14 20 24 24 24 26 24 24 24 22 21 16 17 18 19 18 18 21 22 23 25 21
42 43 44 48 48 50 50 50 50 51 51 51 47 44 42 45 46 43 37 23 21 18 16 16 13 12 11 12 19 22 26 26 27 30 28 27 22 21 20 21 21 19 22 21 25 20 19
42 42 43 45 47 47 49 50 50 51 51 51 45 38 42 48 46 39 29 24 22 21 20 17 17 16 16 15 15 17 18 27 26 27 25 23 24 23 27 26 24 23 22 24 24 25 20
41 42 43 45 47 47 46 49 50 50 50 49 42 32 43 47 34 33 27 25 29 21 21 21 22 21 19 18 18 18 20 29 29 28 25 26 24 19 18 18 24 24 20 22 25 24 26
41 42 42 43 44 47 46 45 49 49 50 46 37 37 46 43 29 28 26 23 24 23 22 19 20 22 23 20 18 18 22 26 26 29 30 29 24 17 16 15 15 13 16 22 23 28 24
40 41 42 42 43 44 46 45 47 49 49 47 35 31 36 40 35 29 26 23 20 22 22 21 20 22 22 21 20 18 19 27 31 28 35 32 26 21 16 16 15 15 10 11 17 22 19
39 40 42 41 42 43 44 45 45 49 49 47 35 33 35 31 33 33 30 27 24 19 21 21 21 21 20 18 18 18 20 19 27 34 31 27 21 21 18 14 12 12 12 14 14 16 18
38 40 41 42 42 42 43 43 45 45 49 45 32 33 38 31 34 32 32 28 27 24 23 20 21 21 20 18 20 18 18 15 17 26 28 29 22 25 21 19 17 16 15 14 14 13 11
38 39 40 40 41 42 42 42 43 44 47 39 35 39 39 33 33 31 30 28 26 27 25 21 21 21 20 21 27 28 29 29 29 27 29 32 31 27 21 23 24 20 19 19 19 20 19
38 38 39 40 40 40 41 42 42 44 45 37 35 40 33 32 33 30 28 29 28 25 24 26 29 27 27 29 29 28 28 27 27 27 28 27 27 29 25 22 15 18 23 23 21 18 19
38 38 38 38 40 39 40 40 43 44 44 39 40 37 33 31 33 31 31 28 28 28 27 27 30 32 32 30 28 23 24 23 24 23 23 25 24 22 19 17 18 19 21 22 21 18 21
37 37 38 37 37 40 39 39 42 41 43 40 39 41 34 32 33 31 32 31 28 28 30 31 35 33 32 30 25 19 16 17 16 15 16 16 22 21 18 15 8 16 21 23 26 19 28
37 38 37 37 37 39 39 39 41 41 43 41 40 40 38 32 35 37 35 33 36 32 29 32 33 30 31 24 19 19 19 18 14 13 15 20 21 19 18 18 19 20 23 24 20 19 32
36 37 37 37 38 38 39 37 39 40 41 42 40 42 39 35 35 36 36 36 35 35 28 33 31 29 26 21 21 21 20 20 19 19 19 18 21 20 22 22 20 30 29 25 30 35 34
37 37 37 37 37 38 39 40 39 38 39 42 39 43 42 36 36 39 40 40 39 37 36 36 31 31 31 24 23 22 22 22 22 21 26 20 26 22 25 23 29 33 30 33 37 35 34

GFSGBSN_sfc_dewp_147.txt.gz
Dewpoint
62 62 62 61 61 61 61 60 59 59 59 59 59 59 57 54 51 51 51 52 52 52 52 52 53 55 47 24 24 31 57 52 40 36 31 29 26 22 21 24 21 19 22 21 21 21 20
59 61 61 61 61 61 61 61 60 59 59 59 58 56 54 51 49 50 51 51 51 52 52 51 53 55 39 17 22 33 38 33 33 27 26 29 25 29 26 27 23 23 26 25 24 21 22
57 58 58 60 60 60 61 60 60 59 59 58 56 53 51 49 49 49 50 50 50 51 51 51 52 49 41 14 23 27 29 26 26 25 24 28 25 31 32 27 29 27 23 23 23 21 19
56 56 56 58 58 58 59 59 59 57 56 54 52 51 49 49 49 49 49 49 50 51 50 50 51 47 27 28 37 37 31 22 23 24 24 24 26 33 32 30 25 23 23 19 18 21 19
56 56 55 55 54 54 54 54 55 54 53 52 51 50 49 49 48 49 49 49 50 50 50 51 45 44 32 38 28 27 29 21 21 26 24 23 33 31 31 26 22 23 7 20 19 21 20
56 56 55 55 54 54 54 54 54 54 53 53 52 51 50 50 50 49 49 49 48 47 46 45 44 29 27 21 26 26 26 24 35 29 26 27 30 28 28 24 6 14 20 22 18 19 20
56 56 55 55 55 55 55 54 54 53 53 53 52 52 50 49 50 49 45 40 36 35 41 30 35 23 25 30 27 28 35 36 36 29 25 30 25 21 21 27 23 22 22 21 20 20 18
56 56 56 55 55 55 55 54 53 53 53 52 52 52 51 50 50 49 42 33 36 36 33 35 36 36 35 34 31 30 29 30 35 32 30 28 27 23 25 27 27 26 24 22 22 24 22
54 56 56 55 55 55 55 54 53 53 53 53 52 52 51 50 49 41 37 32 38 40 32 29 32 32 33 33 31 30 24 27 33 32 30 27 25 29 28 27 26 25 23 22 22 21 19
52 54 55 55 55 55 55 55 53 53 52 51 51 51 51 50 43 42 40 45 45 36 21 21 27 26 23 29 25 31 26 29 32 31 32 31 31 30 28 27 27 24 24 23 23 19 17
53 53 53 54 54 54 54 54 53 53 52 52 51 51 51 47 42 39 40 37 46 37 20 26 23 22 22 21 20 23 24 24 28 29 29 27 23 29 28 27 26 24 24 23 22 19 19
52 52 50 51 53 53 53 54 53 53 53 52 51 52 51 44 42 37 41 43 44 31 25 26 27 22 17 16 19 28 17 19 19 18 18 22 22 19 18 21 23 24 21 20 21 19 17
49 50 51 51 50 52 54 53 54 53 53 53 52 52 48 42 37 42 46 43 27 25 25 23 25 26 19 19 19 29 20 16 13 12 11 11 11 14 16 15 20 21 19 17 15 16 15
46 47 48 49 51 52 51 52 53 53 53 53 51 51 47 42 43 43 43 33 23 24 22 25 23 26 22 26 22 21 28 19 20 14 14 8 9 9 12 12 14 19 20 20 14 14 13
43 43 45 46 47 50 51 52 51 52 52 52 51 46 44 44 44 43 36 26 23 24 21 25 22 20 24 25 28 24 26 28 23 17 11 16 15 16 11 13 14 19 19 20 20 23 20
41 41 42 43 44 46 48 50 51 51 52 52 47 45 44 44 43 42 35 26 27 22 21 23 20 22 16 17 24 26 24 29 26 25 19 23 21 24 22 21 19 20 22 21 24 17 15
40 41 42 42 42 45 46 47 49 50 51 52 45 40 44 47 46 39 29 28 27 26 25 20 21 20 18 18 18 19 27 29 26 26 26 25 24 22 24 23 19 21 22 25 24 23 15
38 39 40 41 42 43 44 47 47 48 50 49 42 32 44 46 34 34 29 27 31 25 24 25 26 24 21 21 19 20 27 27 28 29 29 32 28 23 21 23 21 25 25 27 23 22 26
38 39 40 41 42 42 43 44 47 47 46 46 36 36 44 43 29 30 29 28 27 24 22 24 24 25 24 22 18 20 27 28 28 30 29 32 33 22 18 19 25 26 24 24 24 26 22
38 39 39 40 40 42 42 43 44 46 45 45 33 30 35 40 38 30 28 27 26 26 24 24 23 22 22 24 25 22 22 26 29 30 35 31 29 25 18 20 24 25 24 22 22 23 20
37 37 38 39 40 41 41 42 43 44 46 43 35 31 36 30 31 33 29 27 25 22 24 24 21 19 18 20 22 24 24 24 26 31 31 27 20 20 19 18 18 23 23 21 20 20 22
36 37 38 38 38 40 41 42 42 43 42 40 32 31 34 33 35 34 32 28 25 24 23 20 21 22 20 15 17 18 22 23 24 25 28 31 25 24 19 20 20 21 22 21 19 21 23
37 36 37 38 38 39 40 41 42 42 42 35 37 37 34 34 33 33 32 29 27 27 26 22 21 21 20 21 23 23 26 25 25 24 29 30 27 26 20 27 25 22 21 19 19 20 21
35 36 37 37 38 38 40 40 40 42 42 38 37 38 32 27 32 33 34 32 30 28 26 27 26 25 25 28 28 26 26 26 27 27 29 30 28 28 24 24 17 20 23 21 22 23 25
37 36 36 36 38 38 39 40 40 40 42 39 39 37 32 28 28 29 32 34 33 31 31 28 29 30 31 29 26 24 22 21 22 25 27 31 27 24 21 20 20 20 20 22 20 18 21
36 36 35 36 38 39 39 40 41 40 40 41 40 40 36 29 27 31 32 35 32 31 32 31 36 34 33 31 27 22 18 18 17 19 23 28 27 24 22 17 10 18 19 20 24 16 23
38 38 38 37 38 38 39 39 40 40 39 41 38 40 36 30 29 31 30 30 36 34 31 32 32 31 33 28 24 22 21 20 14 14 14 19 20 18 20 17 19 22 22 23 16 16 28
41 41 39 39 38 39 39 39 39 40 39 40 37 41 36 32 32 37 37 34 35 35 31 33 31 29 24 25 26 25 20 19 17 18 15 13 16 16 15 9 10 28 29 22 25 31 32
42 42 41 38 39 39 39 38 39 40 39 41 34 40 40 33 33 39 39 39 40 37 35 35 30 29 29 25 21 25 22 21 19 15 22 14 18 16 19 18 24 30 27 30 34 33 33